Weather History for KWRL - April, 2013

Change the Weather History Date:

Tuesday, April 23, 2013

  Actual Average Record
Temperature  
Mean Temperature 19 °F 48 °F  
Max Temperature 34 °F 62 °F 88 °F (2012)
Min Temperature 4 °F 33 °F 4 °F (2013)
Degree Days  
Heating Degree Days 46 17  
Month to date heating degree days 613 469  
Since 1 July heating degree days 7068 7355  
Cooling Degree Days 0 0  
Month to date cooling degree days 0 0  
Year to date cooling degree days 0 0  
Moisture  
Dew Point 12 °F    
Average Humidity 68    
Maximum Humidity 92    
Minimum Humidity 43    
Precipitation  
Precipitation T in 0.04 in 0.23 in (1961)
Month to date precipitation 0.90 0.57  
Year to date precipitation 1.49 1.45  
Sea Level Pressure  
Sea Level Pressure 30.38 in    
Wind  
Wind Speed 3 mph (SE)    
Max Wind Speed 12 mph    
Max Gust Speed 47 mph    
Visibility 10 miles    
Events Snow    
T = Trace of Precipitation, MM = Missing Value Source: NWS Daily Summary

Daily Weather History Graph

Daily Weather History Graph

Search for Another Location

Airport or City:

Trip Planner

Search our weather history database for the weather conditions in past years. The results will help you decide how hot, cold, wet, or windy it might be!

Date:

Astronomy

Apr. 23, 2013 Rise Set
Actual Time 6:15 AM MDT 8:05 PM MDT
Civil Twilight 5:44 AM MDT 8:36 PM MDT
Nautical Twilight 5:06 AM MDT 9:14 PM MDT
Astronomical Twilight 4:25 AM MDT 9:55 PM MDT
Moon 6:00 PM MDT (4/23) 4:49 AM MDT (4/23)
Length of Visible Light 14h 52m
Length of Day
13h 50m
Waxing Gibbous, 94% of the Moon is Illuminated
Apr 23
Waxing Gibbous
Apr 25
Full
May 2
Last Quarter
May 9
New
May 17
First Quarter

Hourly Weather History & Observations

Time (MDT) Temp. Windchill Dew Point Humidity Pressure Visibility Wind Dir Wind Speed Gust Speed Precip Events Conditions
12:53 AM 14.0 °F 8.2 °F 10.0 °F 84% 30.48 in 10.0 mi East 3.5 mph - N/A   Scattered Clouds
1:53 AM 12.9 °F 6.9 °F 9.0 °F 84% 30.48 in 10.0 mi ESE 3.5 mph - N/A   Mostly Cloudy
2:53 AM 10.9 °F 4.7 °F 8.1 °F 88% 30.47 in 10.0 mi South 3.5 mph - N/A   Clear
3:53 AM 12.0 °F 5.9 °F 7.0 °F 80% 30.46 in 10.0 mi SW 3.5 mph - N/A   Mostly Cloudy
4:53 AM 10.9 °F 4.7 °F 7.0 °F 84% 30.45 in 10.0 mi SSW 3.5 mph - N/A   Clear
5:53 AM 5.0 °F - 1.9 °F 87% 30.46 in 10.0 mi Calm Calm - N/A   Clear
6:53 AM 7.0 °F - 3.9 °F 87% 30.46 in 9.0 mi Calm Calm - N/A   Clear
7:53 AM 12.0 °F 1.5 °F 9.0 °F 88% 30.45 in 10.0 mi SSW 6.9 mph - N/A   Clear
8:53 AM 14.0 °F 8.2 °F 10.0 °F 84% 30.44 in 10.0 mi SW 3.5 mph - N/A   Clear
9:53 AM 18.0 °F - 10.9 °F 74% 30.43 in 10.0 mi Calm Calm - N/A   Clear
10:53 AM 25.0 °F - 10.9 °F 55% 30.40 in 10.0 mi Calm Calm - N/A   Clear
11:53 AM 27.0 °F - 15.1 °F 61% 30.39 in 10.0 mi Calm Calm - N/A   Clear
12:53 PM 30.9 °F - 15.1 °F 52% 30.36 in 10.0 mi Calm Calm - 0.00 in   Clear
1:53 PM 32.0 °F - 14.0 °F 48% 30.34 in 10.0 mi Calm Calm - 0.00 in Snow Light Snow
2:53 PM 32.0 °F 28.7 °F 15.1 °F 50% 30.33 in 9.0 mi NNE 3.5 mph - 0.00 in Snow Light Snow
3:53 PM 33.1 °F - 12.0 °F 42% 30.31 in 10.0 mi Calm Calm - 0.00 in   Clear
4:53 PM 33.1 °F 28.7 °F 16.0 °F 50% 30.30 in 10.0 mi NE 4.6 mph - N/A   Clear
5:53 PM 33.1 °F 30.0 °F 14.0 °F 46% 30.32 in 10.0 mi ENE 3.5 mph - N/A   Clear
6:53 PM 32.0 °F 28.7 °F 15.1 °F 50% 30.30 in 10.0 mi NE 3.5 mph - N/A   Clear
7:53 PM 28.0 °F 24.2 °F 16.0 °F 61% 30.30 in 10.0 mi ENE 3.5 mph - N/A   Clear
8:53 PM 27.0 °F 19.5 °F 17.1 °F 66% 30.31 in 10.0 mi ESE 6.9 mph - N/A   Scattered Clouds
9:53 PM 26.1 °F 19.4 °F 18.0 °F 71% 30.32 in 10.0 mi SSW 5.8 mph - N/A   Overcast
10:53 PM 27.0 °F 23.0 °F 19.0 °F 72% 30.29 in 10.0 mi SE 3.5 mph - N/A   Overcast
11:53 PM 25.0 °F 15.5 °F 18.0 °F 75% 30.28 in 10.0 mi ESE 9.2 mph - N/A   Clear